Holdrege, NE

8:08 AM CDT on August 20, 2017 (GMT -0500)
Brewster

Weather History for KHDE - November, 2013

Change the Weather History Date:

Wednesday, November 27, 2013

  Actual Average Record
Temperature  
Mean Temperature 28 °F -  
Max Temperature 47 °F 39 °F 69 °F (1998)
Min Temperature 9 °F 18 °F -4 °F (1975)
Degree Days  
Heating Degree Days 37    
Moisture  
Dew Point 16 °F    
Average Humidity 60    
Maximum Humidity 76    
Minimum Humidity 39    
Precipitation  
Precipitation 0.00 in - - ()
Sea Level Pressure  
Sea Level Pressure 30.16 in    
Wind  
Wind Speed 9 mph (SSW)    
Max Wind Speed 23 mph    
Max Gust Speed 30 mph    
Visibility 10 miles    
Events      
Averages and records for this station are not official NWS values.
T = Trace of Precipitation, MM = Missing Value Source: NWS Daily Summary

Daily Weather History Graph

Daily Weather History Graph

Search for Another Location

Airport or City:

Trip Planner

Search our weather history database for the weather conditions in past years. The results will help you decide how hot, cold, wet, or windy it might be!

Date:

Astronomy

Nov. 27, 2013 Rise Set
Actual Time 7:37 AM CST 5:12 PM CST
Civil Twilight 7:07 AM CST 5:42 PM CST
Nautical Twilight 6:33 AM CST 6:16 PM CST
Astronomical Twilight 6:00 AM CST 6:48 PM CST
Moon 1:40 AM CST (11/27) 1:51 PM CST (11/27)
Length of Visible Light 10h 35m
Length of Day
9h 35m
Waning Crescent, 31% of the Moon is Illuminated
Nov 27
Waning Crescent
Dec 2
New
Dec 9
First Quarter
Dec 17
Full
Dec 25
Last Quarter

Hourly Weather History & Observations

Time (CST) Temp. Windchill Dew Point Humidity Pressure Visibility Wind Dir Wind Speed Gust Speed Precip Events Conditions
12:15 AM 12.4 °F 6.3 °F 5.0 °F 72% 30.40 in 10.0 mi West 3.5 mph - N/A   Clear
12:35 AM 10.9 °F 4.7 °F 4.3 °F 75% 30.40 in 10.0 mi West 3.5 mph - N/A   Clear
12:55 AM 10.8 °F 4.5 °F 4.5 °F 76% 30.39 in 10.0 mi West 3.5 mph - N/A   Clear
1:15 AM 12.2 °F 6.1 °F 4.8 °F 72% 30.38 in 10.0 mi West 3.5 mph - N/A   Clear
1:35 AM 12.7 °F 6.7 °F 4.8 °F 71% 30.38 in 10.0 mi West 3.5 mph - N/A   Clear
1:55 AM 12.2 °F - 5.2 °F 73% 30.37 in 10.0 mi Calm Calm - N/A   Clear
2:15 AM 9.5 °F 3.0 °F 2.3 °F 73% 30.37 in 10.0 mi WSW 3.5 mph - N/A   Clear
2:35 AM 11.7 °F - 5.2 °F 75% 30.37 in 10.0 mi Calm Calm - N/A   Clear
2:55 AM 10.4 °F 4.0 °F 4.3 °F 76% 30.36 in 10.0 mi SW 3.5 mph - N/A   Clear
3:15 AM 12.2 °F 2.9 °F 5.0 °F 73% 30.36 in 10.0 mi SW 5.8 mph - N/A   Clear
3:35 AM 14.7 °F 5.9 °F 4.6 °F 64% 30.35 in 10.0 mi SSW 5.8 mph - N/A   Clear
3:55 AM 11.8 °F 3.9 °F 3.7 °F 70% 30.34 in 10.0 mi SSW 4.6 mph - N/A   Clear
4:15 AM 14.9 °F 6.1 °F 5.0 °F 65% 30.34 in 10.0 mi SSW 5.8 mph - N/A   Clear
4:35 AM 14.5 °F 5.7 °F 5.2 °F 66% 30.33 in 10.0 mi SSW 5.8 mph - N/A   Clear
4:55 AM 15.8 °F 6.1 °F 6.3 °F 66% 30.32 in 10.0 mi SSW 6.9 mph - N/A   Clear
5:15 AM 16.5 °F 5.1 °F 7.0 °F 66% 30.31 in 10.0 mi SSW 9.2 mph - N/A   Clear
5:35 AM 16.2 °F 6.5 °F 8.1 °F 70% 30.31 in 10.0 mi SSW 6.9 mph - N/A   Clear
5:55 AM 15.3 °F 9.6 °F 7.7 °F 72% 30.31 in 10.0 mi South 3.5 mph - N/A   Clear
6:15 AM 13.8 °F 4.9 °F 7.0 °F 74% 30.30 in 10.0 mi South 5.8 mph - N/A   Clear
6:35 AM 13.3 °F 4.2 °F 6.6 °F 75% 30.30 in 10.0 mi South 5.8 mph - N/A   Clear
6:55 AM 13.6 °F 3.5 °F 6.8 °F 74% 30.29 in 10.0 mi South 6.9 mph - N/A   Clear
7:15 AM 16.3 °F 4.1 °F 6.8 °F 66% 30.28 in 10.0 mi South 10.4 mph - N/A   Clear
7:35 AM 16.7 °F 3.2 °F 6.8 °F 65% 30.26 in 10.0 mi South 12.7 mph - N/A   Clear
7:55 AM 17.4 °F 4.1 °F 6.8 °F 63% 30.26 in 10.0 mi South 12.7 mph - N/A   Clear
8:15 AM 18.1 °F 6.3 °F 8.2 °F 65% 30.26 in 10.0 mi South 10.4 mph - N/A   Clear
8:35 AM 20.1 °F 8.1 °F 9.5 °F 63% 30.26 in 10.0 mi South 11.5 mph - N/A   Clear
8:55 AM 21.9 °F 11.0 °F 10.9 °F 63% 30.26 in 10.0 mi South 10.4 mph - N/A   Clear
9:15 AM 23.4 °F 11.6 °F 11.5 °F 60% 30.25 in 10.0 mi South 12.7 mph - N/A   Clear
9:35 AM 25.5 °F 13.8 °F 12.2 °F 57% 30.24 in 10.0 mi South 13.8 mph 18.4 mph N/A   Clear
9:55 AM 27.7 °F 15.2 °F 11.5 °F 51% 30.22 in 10.0 mi South 17.3 mph - N/A   Clear
10:15 AM 30.0 °F 17.9 °F 12.9 °F 49% 30.21 in 10.0 mi South 18.4 mph 23.0 mph N/A   Clear
10:35 AM 32.0 °F 21.2 °F 14.9 °F 49% 30.20 in 10.0 mi South 16.1 mph 20.7 mph N/A   Clear
10:55 AM 33.3 °F 22.1 °F 15.6 °F 48% 30.18 in 10.0 mi South 18.4 mph 25.3 mph N/A   Clear
11:15 AM 35.4 °F 24.9 °F 16.7 °F 47% 30.17 in 10.0 mi SSW 18.4 mph 26.5 mph N/A   Clear
11:35 AM 36.0 °F 25.3 °F 17.2 °F 47% 30.16 in 10.0 mi South 19.6 mph 27.6 mph N/A   Clear
11:55 AM 36.9 °F 25.6 °F 17.6 °F 46% 30.13 in 10.0 mi SSW 23.0 mph 26.5 mph N/A   Clear
12:15 PM 37.6 °F 26.9 °F 18.1 °F 45% 30.11 in 10.0 mi South 21.9 mph 27.6 mph N/A   Clear
12:35 PM 38.3 °F 28.1 °F 18.5 °F 45% 30.10 in 10.0 mi South 20.7 mph 26.5 mph N/A   Clear
12:55 PM 40.1 °F 30.2 °F 19.6 °F 44% 30.08 in 10.0 mi South 21.9 mph 27.6 mph N/A   Clear
1:15 PM 41.2 °F 31.9 °F 20.1 °F 43% 30.07 in 10.0 mi South 20.7 mph 26.5 mph N/A   Clear
1:35 PM 42.1 °F 33.1 °F 20.7 °F 42% 30.06 in 10.0 mi South 20.7 mph 28.8 mph N/A   Clear
1:55 PM 43.7 °F 35.7 °F 21.2 °F 41% 30.05 in 10.0 mi South 18.4 mph 27.6 mph N/A   Clear
2:15 PM 44.8 °F 36.9 °F 21.6 °F 40% 30.04 in 10.0 mi South 19.6 mph 25.3 mph N/A   Clear
2:35 PM 45.5 °F 37.1 °F 21.9 °F 39% 30.02 in 10.0 mi South 23.0 mph 27.6 mph N/A   Clear
2:55 PM 46.2 °F 38.5 °F 22.8 °F 40% 30.01 in 10.0 mi South 20.7 mph 29.9 mph N/A   Clear
3:15 PM 47.3 °F - 23.5 °F 39% 30.00 in 10.0 mi South 23.0 mph 27.6 mph N/A   Clear
3:35 PM 47.5 °F - 23.9 °F 40% 30.00 in 10.0 mi South 19.6 mph 26.5 mph N/A   Clear
3:55 PM 47.5 °F - 24.1 °F 40% 30.00 in 10.0 mi South 18.4 mph 28.8 mph N/A   Clear
4:15 PM 47.1 °F - 24.3 °F 41% 29.99 in 10.0 mi South 19.6 mph 25.3 mph N/A   Clear
4:35 PM 46.2 °F 38.7 °F 24.4 °F 42% 29.99 in 10.0 mi South 19.6 mph 26.5 mph N/A   Clear
4:55 PM 45.0 °F 37.9 °F 24.6 °F 45% 29.99 in 10.0 mi South 16.1 mph 24.2 mph N/A   Clear
5:15 PM 43.3 °F 36.1 °F 24.8 °F 48% 29.99 in 10.0 mi South 15.0 mph 20.7 mph N/A   Clear
5:35 PM 41.4 °F 34.7 °F 24.6 °F 51% 29.99 in 10.0 mi South 11.5 mph - N/A   Clear
5:55 PM 38.5 °F 31.6 °F 23.9 °F 56% 29.99 in 10.0 mi South 10.4 mph - N/A   Clear
6:15 PM 39.6 °F 31.3 °F 24.6 °F 55% 29.98 in 10.0 mi South 15.0 mph - N/A   Clear
6:35 PM 39.0 °F 31.0 °F 24.3 °F 55% 29.99 in 10.0 mi South 13.8 mph - N/A   Clear
6:55 PM 37.9 °F 30.0 °F 24.3 °F 58% 30.00 in 10.0 mi South 12.7 mph - N/A   Clear
7:15 PM 37.4 °F 29.3 °F 24.3 °F 59% 30.00 in 10.0 mi South 12.7 mph - N/A   Clear
7:35 PM 37.0 °F 29.3 °F 24.4 °F 60% 30.00 in 10.0 mi South 11.5 mph - N/A   Clear
7:55 PM 36.9 °F 29.1 °F 24.8 °F 62% 30.00 in 10.0 mi SSW 11.5 mph - N/A   Clear
8:15 PM 36.1 °F 28.2 °F 24.8 °F 63% 30.01 in 10.0 mi SSW 11.5 mph - N/A   Clear
8:35 PM 34.7 °F 30.6 °F 24.4 °F 66% 30.01 in 10.0 mi South 4.6 mph - N/A   Clear
8:55 PM 35.6 °F 29.9 °F 25.2 °F 66% 30.01 in 10.0 mi SSW 6.9 mph - N/A   Clear
9:15 PM 35.6 °F 31.7 °F 25.0 °F 65% 30.01 in 10.0 mi SW 4.6 mph - N/A   Clear
9:35 PM 34.9 °F - 25.2 °F 68% 30.02 in 10.0 mi Calm Calm - N/A   Clear
9:55 PM 32.5 °F 27.1 °F 23.7 °F 70% 30.03 in 10.0 mi West 5.8 mph - N/A   Clear
10:15 PM 30.9 °F 24.3 °F 22.8 °F 72% 30.04 in 10.0 mi NW 6.9 mph - N/A   Clear
10:35 PM 30.2 °F 25.4 °F 23.0 °F 75% 30.05 in 10.0 mi NW 4.6 mph - N/A   Clear
10:55 PM 28.6 °F 22.4 °F 21.2 °F 74% 30.06 in 10.0 mi NNW 5.8 mph - N/A   Clear
11:15 PM 32.0 °F 23.6 °F 23.2 °F 70% 30.06 in 10.0 mi NNW 10.4 mph - N/A   Clear
11:35 PM 33.6 °F 25.0 °F 23.9 °F 68% 30.07 in 10.0 mi NNW 11.5 mph - N/A   Clear
11:55 PM 32.9 °F 25.3 °F 23.5 °F 68% 30.08 in 10.0 mi NNW 9.2 mph - N/A   Clear